CZ-6A DEB

Satellite information

Favourite Embed

Satellite Type and Status

DEBRISIN ORBIT

Key statistics

Satellite CZ-6A DEB at a glance.

Uptime

908

Days in orbit

Revolutions

≈ 14.6

Per day

Orbit

SSO

Sun Synchronous Orbit

Inclination

98.8

Latest

Satellite identification and parameters

Extended collection of information and parameters for CZ-6A DEB.

Object identification

Identified? True

Debris? True

Object name: CZ-6A DEB

International designator: 2022-151XE

Object number (NORAD): 55237

Object ID (CCSDS): 55237

Country: PEOPLES REPUBLIC OF CHINA (PRC)

Current information (Y/N): Y

RCS size: SMALL

Orbital parameters

Period: 98.92 minutes

Inclination: 98.7886 deg

SMA: 7085.142 km

Apoapsis: 786.791 km

Periapsis: 627.224 km

RAAN: 191.518 deg

Eccentricy: 0.0112607

Argument of periapsis: 64.7996 deg

Mean anomaly: 296.4826 deg

Mean motion: 14.55726803 rev/day

Mean motion (dot): 0.00004959 rev/day2

B* drag term: 0.0010517 1/REarth

Two-line elements (TLE)

Creation date: May 7, 2025, 3:14 a.m.

Reference frame: TEME

Reference center: EARTH

Epoch: May 6, 2025, 3:47 a.m. UTC

TLE line 0: 0 CZ-6A DEB

TLE line 1: 1 55237U 22151XE 25126.15799448 .00004959 00000-0 10517-2 0 9999

TLE line 2: 2 55237 98.7886 191.5180 0112607 64.7996 296.4826 14.55726803129991

Live tracking on map

Real-time ground track for satellite CZ-6A DEB.

In-orbit conjunctions

A list of the most updated potential collisions computed for object CZ-6A DEB.

Target Orbit TCA Probability of collision Miss distance Type
COSMOS 1110 LEO 2025-03-31 18:14:59 0.0001980972 87.0 (m) PAYLOAD
DELTA 1 DEB SSO 2024-11-11 03:43:20 0.0002250382 703.0 (m) DEBRIS

Associated space launch

Chinese satellite reported for atmospheric/ocean/environmental/spatial parameter research purposes, details TBD.

CZ-6A DEB was lifted into orbit during the mission ‘Long March 6A | Yunhai 3’, on board a Long March 6A space rocket.

The launch took place on Nov. 11, 2022, 10:52 p.m. from Launch Complex 9A.

For more information about the launch, click the button.

Launch to space Long March 6A | Yunhai 3
Long March 6A | Yunhai 3

Agency: N/A

Status: Launch Successful

Launch date: Nov. 11, 2022, 10:52 p.m. UTC

Rocket: Long March 6A

Launch pad: Launch Complex 9A

Location: Taiyuan Satellite Launch Center, People's Republic of China

...

Latest news about this satellite

There are no fresh news available about this satellite. Check back as we update our databases every day.


Newsletter sign-up

Weekly statistics, charts and insights to help you stay on top of the space industry.